Campo, CA

5:41 PM PDT on September 20, 2019 (GMT -0700)
Campo

Weather History for KCZZ - May, 2019

Change the Weather History Date:

Wednesday, May 29, 2019

  Actual Average Record
Temperature  
Mean Temperature 61 °F 63 °F  
Max Temperature 80 °F 82 °F 102 °F (1984)
Min Temperature 42 °F 43 °F 32 °F (1989)
Degree Days  
Heating Degree Days 4 4  
Month to date heating degree days 289 151  
Since 1 July heating degree days 3007 2919  
Cooling Degree Days 0 1  
Month to date cooling degree days 0 24  
Year to date cooling degree days 2 27  
Growing Degree Days 12 (Base 50)    
Moisture  
Dew Point 48 °F    
Average Humidity 63    
Maximum Humidity 93    
Minimum Humidity 32    
Precipitation  
Precipitation 0.00 in 0.01 in 0.13 in (1988)
Month to date precipitation 1.55 0.18  
Year to date precipitation 12.74 10.04  
Sea Level Pressure  
Sea Level Pressure 29.79 in    
Wind  
Wind Speed 8 mph (WNW)    
Max Wind Speed 20 mph    
Max Gust Speed 24 mph    
T = Trace of Precipitation, MM = Missing Value Source: NWS Daily Summary

Daily Weather History Graph

Daily Weather History Graph

Search for Another Location

Airport or City:

Astronomy

May. 29, 2019 Rise Set
Actual Time 5:40 AM PDT 7:46 PM PDT
Civil Twilight 5:12 AM PDT 8:14 PM PDT
Nautical Twilight 4:38 AM PDT 8:48 PM PDT
Astronomical Twilight 4:01 AM PDT 9:25 PM PDT
Moon 2:59 AM PDT (5/29) 3:18 PM PDT (5/29)
Length of Visible Light 15h 02m
Length of Day
14h 06m
Waning Crescent, 22% of the Moon is Illuminated
May 29
Waning Crescent
Jun 3
New
Jun 9
First Quarter
Jun 17
Full
Jun 25
Last Quarter

Hourly Weather History & Observations

Time (PDT) Temp. Windchill Dew Point Humidity Pressure Visibility Wind Dir Wind Speed Gust Speed Precip Events Conditions
12:52 AM 46.0 °F 43.1 °F 43.0 °F 89% 29.81 in - NE 5.8 mph - N/A   Unknown
1:52 AM 46.0 °F - 44.1 °F 93% 29.80 in - Calm Calm - N/A   Unknown
2:52 AM 46.0 °F 43.1 °F 44.1 °F 93% 29.80 in - NE 5.8 mph - N/A   Unknown
3:52 AM 45.0 °F 41.8 °F 43.0 °F 93% 29.79 in - NE 5.8 mph - N/A   Unknown
4:52 AM 44.1 °F 42.5 °F 42.1 °F 93% 29.79 in - NE 3.5 mph - N/A   Unknown
5:52 AM 44.1 °F 41.5 °F 42.1 °F 93% 29.79 in - NE 4.6 mph - N/A   Unknown
6:52 AM 48.9 °F - 45.0 °F 86% 29.79 in - NE 5.8 mph - N/A   Unknown
7:52 AM 55.9 °F - 50.0 °F 80% 29.81 in - Calm Calm - N/A   Unknown
8:52 AM 64.0 °F - 50.0 °F 60% 29.81 in - Calm Calm - N/A   Unknown
9:52 AM 68.0 °F - 46.0 °F 45% 29.81 in - SW 5.8 mph - N/A   Unknown
10:52 AM 71.1 °F - 52.0 °F 51% 29.81 in - SSW 9.2 mph - N/A   Unknown
11:52 AM 73.9 °F - 54.0 °F 50% 29.80 in - SSW 15.0 mph - N/A   Unknown
12:52 PM 78.1 °F - 48.9 °F 36% 29.78 in - WSW 9.2 mph 20.7 mph N/A   Unknown
1:52 PM 79.0 °F - 46.9 °F 32% 29.76 in - West 13.8 mph - N/A   Unknown
2:52 PM 79.0 °F - 46.9 °F 32% 29.76 in - WNW 15.0 mph 24.2 mph N/A   Unknown
3:52 PM 78.1 °F - 46.9 °F 33% 29.76 in - WNW 15.0 mph 21.9 mph N/A   Unknown
4:52 PM 75.0 °F - 50.0 °F 41% 29.77 in - West 15.0 mph - N/A   Unknown
5:52 PM 72.0 °F - 54.0 °F 53% 29.77 in - SW 12.7 mph 19.6 mph N/A   Unknown
6:52 PM 66.9 °F - 53.1 °F 61% 29.77 in - SW 9.2 mph - N/A   Unknown
7:52 PM 63.0 °F - 53.1 °F 70% 29.79 in - SSW 11.5 mph - N/A   Unknown
8:52 PM 60.1 °F - 52.0 °F 75% 29.81 in - South 3.5 mph - N/A   Unknown
9:52 PM 57.0 °F - 51.1 °F 81% 29.83 in - NW 3.5 mph - N/A   Unknown
10:52 PM 54.0 °F - 50.0 °F 86% 29.83 in - Calm Calm - N/A   Unknown
11:52 PM 51.1 °F - 48.9 °F 92% 29.82 in - NE 4.6 mph - N/A   Unknown